Home   Weather   Nzérékoré   Past weeks

Flag for Guinea Past Weather in Nzérékoré, Guinea — Yesterday and Last 2 Weeks

Now
88 °F

Partly sunny.


Feels Like: 102 °F
Forecast: 66 / 89 °F
Wind: 3 mph from Northeast

Location: Roberts Field

Current Time: Dec 10, 2016 at 12:52:11 pm

Latest Report: Dec 10, 2016 at 12:30 pm


Visibility: N/A

Pressure: 29.86 "Hg

Humidity: 75%

Dew Point: 79 °F

Location of NzérékoréLocation

Past Weather in Nzérékoré — Graph

°F

Nzérékoré Temperature Yesterday

Maximum temperature yesterday: 88 °F (at 12:00 pm)
Minimum temperature yesterday: 72 °F (at 7:00 am)
Average temperature yesterday: 80 °F

High & Low Weather Summary for the Past Weeks

 TemperatureHumidityPressure
High91 °F (Dec 6, 2:00 pm)94% (Nov 25, 5:30 pm)29.95 "Hg (Nov 25, 5:30 pm)
Low72 °F (Dec 9, 7:00 am)66% (Dec 9, 12:00 pm)29.74 "Hg (Nov 26, 3:30 pm)
Average81 °F86%29.86 "Hg
* Reported Nov 25 11:00 am — Dec 10 11:30 am, Nzérékoré, Weather by CustomWeather, © 2016

Note: Actual official high and low records may vary slightly from our data, if they occured in-between our weather recording intervals... More about our weather records

Advertising

Nzérékoré Weather History for the Previous 24 Hours

Scroll right to see more
 ConditionsComfort  
Time TempWeatherWind HumidityBarometerVisibility
11:30 am
Sat, Dec 10
88 °FPartly sunny.No wind66%29.89 "HgN/A
11:00 am86 °FScattered clouds.No wind70%29.89 "HgN/A
10:30 am84 °FScattered clouds.5 mph74%29.89 "HgN/A
10:00 am82 °FPassing clouds.5 mph79%29.89 "HgN/A
9:30 am81 °FPassing clouds.3 mph89%29.89 "HgN/A
9:00 am79 °FPassing clouds.No wind94%29.89 "HgN/A
8:30 am77 °FScattered clouds.No wind94%29.89 "HgN/A
8:00 am77 °FScattered clouds.5 mph94%29.86 "HgN/A
7:30 am75 °FPassing clouds.No wind94%29.86 "HgN/A
7:00 am75 °FPassing clouds.No wind94%29.86 "HgN/A
6:30 am75 °FPassing clouds.No wind94%29.86 "HgN/A
1:00 am75 °FPassing clouds.No wind94%29.86 "HgN/A
12:30 am75 °FPassing clouds.No wind94%29.86 "HgN/A
12:00 am75 °FPassing clouds.No wind94%29.89 "HgN/A
11:30 pm
Fri, Dec 9
75 °FPassing clouds.No wind94%29.89 "HgN/A
11:00 pm75 °FPassing clouds.No wind94%29.86 "HgN/A
10:30 pm77 °FPassing clouds.3 mph94%29.86 "HgN/A
10:00 pm77 °FPassing clouds.No wind94%29.86 "HgN/A
9:30 pm79 °FPassing clouds.7 mph94%29.89 "HgN/A
9:00 pm79 °FPassing clouds.5 mph94%29.89 "HgN/A
8:30 pm79 °FPassing clouds.5 mph94%29.89 "HgN/A
8:00 pm81 °FPassing clouds.3 mph89%29.89 "HgN/A
7:30 pm81 °FPassing clouds.No wind89%29.86 "HgN/A
7:00 pm81 °FPassing clouds.No wind94%29.86 "HgN/A
6:30 pm81 °FScattered clouds.No wind89%29.83 "HgN/A
6:00 pm82 °FScattered clouds.No wind84%29.83 "HgN/A
5:30 pm82 °FScattered clouds.5 mph84%29.83 "HgN/A
5:00 pm84 °FPartly sunny.5 mph79%29.83 "HgN/A
4:30 pm84 °FPartly sunny.7 mph79%29.80 "HgN/A
4:00 pm84 °FScattered clouds.No wind79%29.83 "HgN/A
3:30 pm86 °FScattered clouds.9 mph75%29.83 "HgN/A
3:00 pm86 °FPartly sunny.7 mph75%29.83 "HgN/A
2:30 pm88 °FPartly sunny.9 mph66%29.83 "HgN/A
2:00 pm88 °FPartly sunny.5 mph70%29.83 "HgN/A
1:30 pm88 °FPartly sunny.9 mph66%29.83 "HgN/A
1:00 pm88 °FPartly sunny.5 mph66%29.86 "HgN/A
12:30 pm88 °FScattered clouds.6 mph66%29.86 "HgN/A
12:00 pm88 °FScattered clouds.No wind66%29.89 "HgN/A
Weather by CustomWeather, © 2016

See weather overviewHow to use our weather pages